Weather in Vilgort

Russia / Komi Republic     61°37′19″N   50°45′10″E
temp.,
°C
wind,
m/s
gust,
m/s
humid.,
%
clouds,
%
prec.,
mm/h
press.,
hPa
HPBL,
m
13 april, tue
tue1300:00+2sw4148455 0.0 1036317
03:00+1ssw312927 0.0 1035250
06:00+2ssw41190100 0.0 1034270
09:00+6ssw41384100 0.0 1032444
12:00+9ssw51484100 0.0 1029653
15:00+8ssw51493100 0.0 1027744
18:00+8sw51396100 0.0 1025624
21:00+7sw41195100 0.0 1026613
14 april, wed
wed1400:00+7ssw41197100 0.0 1025439
03:00+7ssw41197100 0.0 1024529
06:00+7ssw4129678 0.0 1023418
09:00+11ssw5117976 0.0 1022459
12:00+15sw5126517 0.0 1021781
15:00+16sw61362100 0.0 10191146
18:00+14sw61568100 0.0 1018787
21:00+11ssw6167795 0.0 1017688
15 april, thu
thu1500:00+10sw5168081 0.0 1016676
03:00+9wsw41386100 0.0 1016564
06:00+4nnw4891100 0.1 1018607
09:00+4nw3778100 2.3 1020807
12:00+7nw464897 0.1 10211519
15:00+7nnw4740100 0.1 10231607
18:00+5nnw365418 0.0 1024264
21:00+1nnw27725 0.0 1026153
16 april, fri
fri1600:00−1nnw27750 0.0 1028146
03:00−1nnw24771 0.0 1029104
06:000nnw136848 0.0 1030194
09:00+4wnw344624 0.0 10301062
12:00+6wnw35385 0.0 10291464
15:00+7wnw474180 0.0 10271704
18:00+6w49536 0.0 1026528
21:00+2wnw39765 0.0 1027232
17 april, sat
sat1700:00+1nw279117 0.0 1028203
03:00−1nnw27957 0.0 1028219
06:000n35756 0.0 1030529
09:00+4wnw486598 0.0 10261035
12:00+5nw463738 0.0 10281553
15:00+5nw596397 0.1 10271435
18:00+4nw51260100 0.1 10261453
21:00+2nnw5126960 0.2 10271190